| time (UTC) | temp C | wind direction | speed KPH | gust KPH | rain 1hr cm | rain 24hr cm | rain mn cm | humidity % | barometer mb |
| 20260505034958 | 17 | 229 | 4.8 | 20.9 | 0.00 | 0.00 | 0.00 | 69 | 997.9 |
| 20260505034458 | 17 | 257 | 4.8 | 16.1 | 0.00 | 0.00 | 0.00 | 69 | 997.9 |
| 20260505033958 | 17 | 244 | 4.8 | 19.3 | 0.00 | 0.00 | 0.00 | 68 | 997.6 |
| 20260505033458 | 17 | 199 | 6.4 | 19.3 | 0.00 | 0.00 | 0.00 | 68 | 997.4 |
| 20260505032958 | 17 | 309 | 4.8 | 12.9 | 0.00 | 0.00 | 0.00 | 67 | 997.3 |
| 20260505032458 | 17 | 235 | 4.8 | 17.7 | 0.00 | 0.00 | 0.00 | 67 | 997.0 |
| 20260505031958 | 18 | 217 | 4.8 | 19.3 | 0.00 | 0.00 | 0.00 | 66 | 996.8 |
| 20260505031459 | 18 | 276 | 3.2 | 22.5 | 0.00 | 0.00 | 0.00 | 66 | 996.8 |
| 20260505030958 | 18 | 217 | 6.4 | 30.6 | 0.00 | 0.00 | 0.00 | 67 | 996.5 |
| 20260505030458 | 18 | 230 | 8.0 | 30.6 | 0.00 | 0.00 | 0.00 | 66 | 996.8 |
| 20260505030000 | 18 | 226 | 4.8 | 16.1 | 0.00 | 0.00 | 0.00 | 64 | 996.8 |
| 20260505025458 | 18 | 303 | 6.4 | 14.5 | 0.00 | 0.00 | 0.00 | 63 | 997.4 |
| 20260505024958 | 18 | 234 | 4.8 | 17.7 | 0.00 | 0.00 | 0.00 | 62 | 996.8 |
| 20260505024458 | 18 | 200 | 6.4 | 22.5 | 0.00 | 0.00 | 0.00 | 61 | 996.4 |
| 20260505023958 | 19 | 207 | 6.4 | 22.5 | 0.00 | 0.00 | 0.00 | 61 | 996.2 |
| 20260505023458 | 19 | 227 | 9.7 | 27.4 | 0.00 | 0.00 | 0.00 | 61 | 996.1 |
| 20260505022958 | 19 | 258 | 11.3 | 27.4 | 0.00 | 0.00 | 0.00 | 62 | 996.2 |
| 20260505022458 | 20 | 271 | 12.9 | 24.1 | 0.00 | 0.00 | 0.00 | 64 | 996.2 |
| 20260505021959 | 20 | 259 | 9.7 | 22.5 | 0.00 | 0.00 | 0.00 | 65 | 996.0 |
| 20260505021458 | 20 | 243 | 8.0 | 22.5 | 0.00 | 0.00 | 0.00 | 64 | 996.1 |
| 20260505020958 | 20 | 194 | 4.8 | 14.5 | 0.00 | 0.00 | 0.00 | 63 | 996.3 |
| 20260505020459 | 21 | 305 | 4.8 | 20.9 | 0.00 | 0.00 | 0.00 | 63 | 996.6 |
| 20260505015958 | 21 | 216 | 11.3 | 20.9 | 0.00 | 0.00 | 0.00 | 60 | 996.9 |
| 20260505015458 | 21 | 223 | 8.0 | 19.3 | 0.00 | 0.00 | 0.00 | 58 | 996.5 |
| 20260505014958 | 21 | 342 | 9.7 | 25.7 | 0.00 | 0.00 | 0.00 | 57 | 996.0 |
| 20260505014458 | 21 | 214 | 11.3 | 24.1 | 0.00 | 0.00 | 0.00 | 56 | 995.7 |
| 20260505013959 | 21 | 195 | 12.9 | 27.4 | 0.00 | 0.00 | 0.00 | 55 | 995.7 |
| 20260505013459 | 21 | 244 | 9.7 | 27.4 | 0.00 | 0.00 | 0.00 | 53 | 995.7 |
| 20260505012958 | 21 | 169 | 6.4 | 16.1 | 0.00 | 0.00 | 0.00 | 51 | 995.6 |
| 20260505012458 | 21 | 215 | 4.8 | 24.1 | 0.00 | 0.00 | 0.00 | 50 | 995.6 |
| 20260505011958 | 21 | 192 | 9.7 | 24.1 | 0.00 | 0.00 | 0.00 | 49 | 995.5 |
| 20260505011458 | 21 | 201 | 6.4 | 19.3 | 0.00 | 0.00 | 0.00 | 47 | 995.3 |
| 20260505010958 | 21 | 172 | 8.0 | 17.7 | 0.00 | 0.00 | 0.00 | 45 | 995.5 |
| 20260505010457 | 21 | 225 | 8.0 | 25.7 | 0.00 | 0.00 | 0.00 | 44 | 995.5 |
| 20260505005958 | 21 | 276 | 6.4 | 19.3 | 0.00 | 0.00 | 0.00 | 43 | 995.4 |
| 20260505005459 | 21 | 228 | 6.4 | 25.7 | 0.00 | 0.00 | 0.00 | 43 | 995.5 |
| 20260505004957 | 21 | 266 | 4.8 | 25.7 | 0.00 | 0.00 | 0.00 | 42 | 995.5 |
| 20260505004458 | 21 | 216 | 11.3 | 20.9 | 0.00 | 0.00 | 0.00 | 41 | 995.3 |
| 20260505003958 | 22 | 193 | 3.2 | 16.1 | 0.00 | 0.00 | 0.00 | 41 | 995.3 |
| 20260505003457 | 22 | 236 | 8.0 | 16.1 | 0.00 | 0.00 | 0.00 | 41 | 995.2 |
| 20260505002958 | 22 | 184 | 6.4 | 14.5 | 0.00 | 0.00 | 0.00 | 40 | 995.1 |
| 20260505002458 | 22 | 212 | 4.8 | 14.5 | 0.00 | 0.00 | 0.00 | 40 | 995.0 |
| 20260505001958 | 22 | 223 | 6.4 | 14.5 | 0.00 | 0.00 | 0.00 | 40 | 994.9 |
| 20260505001458 | 22 | 226 | 8.0 | 17.7 | 0.00 | 0.00 | 0.00 | 39 | 994.9 |
| 20260505000958 | 22 | 240 | 8.0 | 17.7 | 0.00 | 0.00 | 0.00 | 39 | 994.9 |
| 20260505000458 | 22 | 305 | 4.8 | 12.9 | 0.00 | 0.00 | 0.00 | 40 | 994.9 |
| 20260505000000 | 22 | 333 | 4.8 | 17.7 | 0.00 | 0.00 | 0.00 | 40 | 994.9 |
| 20260504221959 | 23 | 337 | 9.7 | 24.1 | 0.00 | 0.00 | 0.00 | 37 | 996.9 |
| 20260504221458 | 23 | 235 | 9.7 | 27.4 | 0.00 | 0.00 | 0.00 | 38 | 997.0 |
| 20260504220958 | 23 | 266 | 9.7 | 27.4 | 0.00 | 0.00 | 0.00 | 37 | 996.9 |
| 20260504220458 | 23 | 212 | 6.4 | 22.5 | 0.00 | 0.00 | 0.00 | 37 | 997.0 |
| 20260504220000 | 23 | 322 | 4.8 | 24.1 | 0.00 | 0.00 | 0.00 | 38 | 997.0 |
| 20260504215459 | 23 | 236 | 8.0 | 32.2 | 0.00 | 0.00 | 0.00 | 38 | 997.0 |
| 20260504214959 | 23 | 232 | 14.5 | 32.2 | 0.00 | 0.00 | 0.00 | 37 | 997.1 |
| 20260504214459 | 23 | 209 | 12.9 | 29.0 | 0.00 | 0.00 | 0.00 | 36 | 997.1 |
| 20260504213959 | 23 | 280 | 6.4 | 29.0 | 0.00 | 0.00 | 0.00 | 39 | 997.2 |
| 20260504213459 | 23 | 225 | 9.7 | 38.6 | 0.00 | 0.00 | 0.00 | 37 | 997.3 |
| 20260504212959 | 23 | 295 | 14.5 | 38.6 | 0.00 | 0.00 | 0.00 | 36 | 997.4 |
| 20260504212459 | 23 | 309 | 9.7 | 29.0 | 0.00 | 0.00 | 0.00 | 36 | 997.4 |
| 20260504211959 | 23 | 199 | 3.2 | 19.3 | 0.00 | 0.00 | 0.00 | 36 | 997.4 |
| 20260504211459 | 23 | 226 | 8.0 | 30.6 | 0.00 | 0.00 | 0.00 | 35 | 997.4 |
| 20260504210959 | 23 | 221 | 11.3 | 30.6 | 0.00 | 0.00 | 0.00 | 35 | 997.6 |
| 20260504210459 | 23 | 195 | 11.3 | 22.5 | 0.00 | 0.00 | 0.00 | 37 | 997.6 |
| 20260504205958 | 23 | 236 | 11.3 | 25.7 | 0.00 | 0.00 | 0.00 | 34 | 997.6 |
| 20260504205459 | 23 | 281 | 14.5 | 27.4 | 0.00 | 0.00 | 0.00 | 34 | 997.5 |
| 20260504204958 | 23 | 214 | 12.9 | 29.0 | 0.00 | 0.00 | 0.00 | 33 | 997.7 |
| 20260504204457 | 22 | 331 | 6.4 | 29.0 | 0.00 | 0.00 | 0.00 | 33 | 998.0 |
| 20260504203958 | 22 | 243 | 14.5 | 32.2 | 0.00 | 0.00 | 0.00 | 32 | 998.0 |
| 20260504203458 | 23 | 240 | 17.7 | 32.2 | 0.00 | 0.00 | 0.00 | 30 | 998.0 |
| 20260504202958 | 23 | 328 | 8.0 | 24.1 | 0.00 | 0.00 | 0.00 | 32 | 997.9 |
| 20260504202458 | 23 | 271 | 6.4 | 30.6 | 0.00 | 0.00 | 0.00 | 35 | 997.9 |
| 20260504201958 | 23 | 234 | 11.3 | 30.6 | 0.00 | 0.00 | 0.00 | 34 | 998.0 |
| 20260504201458 | 23 | 219 | 8.0 | 20.9 | 0.00 | 0.00 | 0.00 | 33 | 998.0 |
| 20260504200958 | 23 | 224 | 9.7 | 30.6 | 0.00 | 0.00 | 0.00 | 35 | 998.1 |
| 20260504200459 | 23 | 271 | 12.9 | 30.6 | 0.00 | 0.00 | 0.00 | 34 | 998.2 |
| 20260504195958 | 23 | 221 | 11.3 | 27.4 | 0.00 | 0.00 | 0.00 | 32 | 998.4 |
| 20260504195458 | 23 | 259 | 9.7 | 27.4 | 0.00 | 0.00 | 0.00 | 32 | 998.3 |
| 20260504194959 | 23 | 235 | 6.4 | 30.6 | 0.00 | 0.00 | 0.00 | 32 | 998.3 |
| 20260504194458 | 23 | 313 | 14.5 | 30.6 | 0.00 | 0.00 | 0.00 | 29 | 998.4 |
| 20260504193958 | 23 | 313 | 11.3 | 27.4 | 0.00 | 0.00 | 0.00 | 32 | 998.5 |
| 20260504193458 | 23 | 337 | 12.9 | 25.7 | 0.00 | 0.00 | 0.00 | 28 | 998.5 |
| 20260504192958 | 23 | 223 | 11.3 | 30.6 | 0.00 | 0.00 | 0.00 | 30 | 998.5 |
| 20260504192458 | 23 | 291 | 11.3 | 30.6 | 0.00 | 0.00 | 0.00 | 30 | 998.4 |
| 20260504191958 | 24 | 280 | 11.3 | 32.2 | 0.00 | 0.00 | 0.00 | 27 | 998.5 |
| 20260504191457 | 23 | 211 | 17.7 | 35.4 | 0.00 | 0.00 | 0.00 | 28 | 998.5 |
| 20260504190958 | 23 | 317 | 14.5 | 35.4 | 0.00 | 0.00 | 0.00 | 27 | 998.4 |
| 20260504190458 | 23 | 188 | 16.1 | 33.8 | 0.00 | 0.00 | 0.00 | 30 | 998.4 |
| 20260504185958 | 23 | 222 | 11.3 | 33.8 | 0.00 | 0.00 | 0.00 | 28 | 998.3 |
| 20260504185458 | 24 | 213 | 14.5 | 33.8 | 0.00 | 0.00 | 0.00 | 30 | 998.3 |
| 20260504184957 | 23 | 343 | 16.1 | 30.6 | 0.00 | 0.00 | 0.00 | 27 | 998.4 |
| 20260504184458 | 23 | 220 | 16.1 | 27.4 | 0.00 | 0.00 | 0.00 | 28 | 998.4 |
| 20260504183958 | 24 | 232 | 14.5 | 27.4 | 0.00 | 0.00 | 0.00 | 29 | 998.4 |
| 20260504180457 | 23 | 313 | 16.1 | 33.8 | 0.00 | 0.00 | 0.00 | 27 | 998.3 |
| 20260504175958 | 23 | 280 | 12.9 | 25.7 | 0.00 | 0.00 | 0.00 | 28 | 998.5 |
| 20260504175458 | 24 | 288 | 9.7 | 24.1 | 0.00 | 0.00 | 0.00 | 27 | 998.5 |
| 20260504174958 | 24 | 206 | 11.3 | 29.0 | 0.00 | 0.00 | 0.00 | 27 | 998.7 |
| 20260504174457 | 24 | 303 | 11.3 | 29.0 | 0.00 | 0.00 | 0.00 | 30 | 998.9 |
| 20260504173958 | 24 | 299 | 11.3 | 24.1 | 0.00 | 0.00 | 0.00 | 30 | 998.7 |
| 20260504173457 | 23 | 234 | 12.9 | 20.9 | 0.00 | 0.00 | 0.00 | 31 | 998.8 |
| 20260504172958 | 24 | 240 | 4.8 | 33.8 | 0.00 | 0.00 | 0.00 | 33 | 998.9 |
| 20260504172458 | 23 | 320 | 4.8 | 33.8 | 0.00 | 0.00 | 0.00 | 32 | 998.9 |
| 20260504171958 | 23 | 196 | 8.0 | 24.1 | 0.00 | 0.00 | 0.00 | 34 | 999.0 |
| 20260504171457 | 23 | 286 | 11.3 | 27.4 | 0.00 | 0.00 | 0.00 | 31 | 999.1 |
| 20260504170957 | 23 | 313 | 11.3 | 27.4 | 0.00 | 0.00 | 0.00 | 32 | 999.1 |
| 20260504170457 | 23 | 9 | 11.3 | 27.4 | 0.00 | 0.00 | 0.00 | 34 | 999.2 |
| 20260504140959 | 17 | 200 | 6.4 | 20.9 | 0.00 | 0.00 | 0.00 | 62 | 1001.1 |
| 20260504140459 | 16 | 232 | 8.0 | 20.9 | 0.00 | 0.00 | 0.00 | 63 | 1001.1 |
| 20260504130458 | 13 | 230 | 8.0 | 16.1 | 0.00 | 0.00 | 0.00 | 72 | 1001.8 |
| 20260504110459 | 8 | 232 | 1.6 | 4.8 | 0.00 | 0.00 | 0.00 | 85 | 1001.4 |
| 20260504081958 | 9 | 224 | 1.6 | 4.8 | 0.00 | 0.00 | 0.00 | 80 | 1001.9 |
| 20260504081459 | 9 | 295 | 1.6 | 4.8 | 0.00 | 0.00 | 0.00 | 80 | 1002.0 |
| 20260504080958 | 9 | 307 | 0.0 | 4.8 | 0.00 | 0.00 | 0.00 | 80 | 1002.1 |
| 20260504080458 | 9 | 247 | 1.6 | 3.2 | 0.00 | 0.00 | 0.00 | 80 | 1002.1 |
| 20260504050457 | 10 | 162 | 4.8 | 12.9 | 0.00 | 0.00 | 0.00 | 77 | 1003.7 |
| 20260504045959 | 10 | 242 | 6.4 | 14.5 | 0.00 | 0.00 | 0.00 | 77 | 1003.8 |
| 20260504045458 | 10 | 210 | 6.4 | 16.1 | 0.00 | 0.00 | 0.00 | 77 | 1003.9 |
| 20260504044958 | 10 | 223 | 4.8 | 14.5 | 0.00 | 0.00 | 0.00 | 77 | 1003.9 |
| 20260504044458 | 10 | 226 | 6.4 | 14.5 | 0.00 | 0.00 | 0.00 | 77 | 1004.0 |
| 20260504043958 | 10 | 165 | 4.8 | 14.5 | 0.00 | 0.00 | 0.00 | 76 | 1004.0 |
| 20260504043459 | 10 | 180 | 3.2 | 16.1 | 0.00 | 0.00 | 0.00 | 76 | 1004.0 |
| 20260504042958 | 10 | 180 | 6.4 | 16.1 | 0.00 | 0.00 | 0.00 | 76 | 1004.1 |
| 20260504042458 | 10 | 266 | 6.4 | 14.5 | 0.00 | 0.00 | 0.00 | 76 | 1004.1 |
| 20260504041958 | 10 | 238 | 6.4 | 14.5 | 0.00 | 0.00 | 0.00 | 76 | 1004.2 |
| 20260504041458 | 10 | 180 | 4.8 | 14.5 | 0.00 | 0.00 | 0.00 | 76 | 1004.2 |
| 20260504041000 | 10 | 220 | 6.4 | 20.9 | 0.00 | 0.00 | 0.00 | 76 | 1004.2 |
| 20260504040458 | 10 | 271 | 9.7 | 20.9 | 0.00 | 0.00 | 0.00 | 76 | 1004.2 |
| 20260504035959 | 10 | 218 | 3.2 | 16.1 | 0.00 | 0.00 | 0.00 | 75 | 1004.2 |
| 20260504035458 | 10 | 180 | 4.8 | 20.9 | 0.00 | 0.00 | 0.00 | 75 | 1004.3 |